GW5233 Weather Reports


time (UTC)temp
C
wind
direction
speed
KPH
gust
KPH
rain 1hr
cm
rain 24hr
cm
rain mn
cm
humidity
%
barometer
mb
20260505130111 10 5 6.4 8.0 0.00 0.00 0.00 20 918.5
20260505124609 10 330 4.8 6.4 0.00 0.00 0.00 20 918.5
20260505123109 10 315 1.6 4.8 0.00 0.00 0.00 20 918.5
20260505121608 11 326 6.4 6.4 0.00 0.00 0.00 20 918.5
20260505120110 11 1 6.4 8.0 0.00 0.00 0.00 20 918.6
20260505114623 11 357 3.2 4.8 0.00 0.00 0.00 20 918.6
20260505113109 11 332 3.2 4.8 0.00 0.00 0.00 20 918.6
20260505111609 12 328 1.6 3.2 0.00 0.00 0.00 20 918.7
20260505110108 12 160 1.6 4.8 0.00 0.00 0.00 20 918.7
20260505101610 16 325 9.7 16.1 0.00 0.00 0.00 20 919.3
20260505100115 16 342 12.9 14.5 0.00 0.00 0.00 20 919.3
20260505094610 17 331 11.3 14.5 0.00 0.00 0.00 20 919.3
20260505093124 17 319 14.5 20.9 0.00 0.00 0.00 20 919.4
20260505091608 17 332 14.5 20.9 0.00 0.00 0.00 20 919.4
20260505090113 16 310 12.9 17.7 0.00 0.00 0.00 20 919.3
20260505084608 17 0 6.4 12.9 0.00 0.00 0.00 20 919.4
20260505083112 17 287 6.4 8.0 0.00 0.00 0.00 20 919.5
20260505081612 18 14 6.4 11.3 0.00 0.00 0.00 20 919.5
20260505080116 18 282 3.2 6.4 0.00 0.00 0.00 20 919.6
20260505074619 19 315 4.8 11.3 0.00 0.00 0.00 20 919.7
20260505073110 20 91 8.0 14.5 0.00 0.00 0.00 20 919.7
20260505071609 19 63 9.7 14.5 0.00 0.00 0.00 20 919.7
20260505070116 19 41 9.7 14.5 0.00 0.00 0.00 20 919.7
20260505064612 20 328 4.8 11.3 0.00 0.00 0.00 20 919.7
20260505063110 20 235 9.7 14.5 0.00 0.00 0.00 20 919.7
20260505061608 20 86 4.8 6.4 0.00 0.00 0.00 20 919.7
20260505060114 20 57 9.7 16.1 0.00 0.00 0.00 20 919.8
20260505054612 20 246 3.2 6.4 0.00 0.00 0.00 20 919.7
20260505053113 21 44 3.2 4.8 0.00 0.00 0.00 20 919.9
20260505051608 21 49 12.9 19.3 0.00 0.00 0.00 20 919.9
20260505050114 21 58 3.2 9.7 0.00 0.00 0.00 20 919.9
20260505041611 21 289 6.4 9.7 0.00 0.00 0.00 20 919.9
20260505040111 21 250 9.7 14.5 0.00 0.00 0.00 20 919.9
20260505034607 20 286 8.0 9.7 0.00 0.00 0.00 20 919.9
20260505033110 20 246 3.2 4.8 0.00 0.00 0.00 20 919.7
20260505030109 22 100 6.4 9.7 0.00 0.00 0.00 20 919.8
20260505023108 23 38 14.5 17.7 0.00 0.00 0.00 20 920.3
20260505021617 22 282 6.4 8.0 0.00 0.00 0.00 20 920.1
20260505020121 23 147 6.4 8.0 0.00 0.00 0.00 20 920.1
20260505014611 24 238 12.9 17.7 0.00 0.00 0.00 20 920.3
20260505013120 25 238 12.9 17.7 0.00 0.00 0.00 21 920.5
20260505011614 25 202 8.0 12.9 0.00 0.00 0.00 21 920.6
20260505010109 25 230 9.7 12.9 0.00 0.00 0.00 21 920.6
20260505004611 26 238 8.0 14.5 0.00 0.00 0.00 21 920.6
20260505000108 25 240 12.9 14.5 0.00 0.00 0.00 21 920.6
20260504234608 25 273 19.3 25.7 0.00 0.00 0.00 21 920.6
20260504233108 25 244 17.7 22.5 0.00 0.00 0.00 22 920.6
20260504231608 25 225 14.5 19.3 0.00 0.00 0.00 22 920.6
20260504230109 25 212 12.9 16.1 0.00 0.00 0.00 22 920.6
20260504201614 21 168 12.9 16.1 0.00 0.00 0.00 22 920.1
20260504194609 20 171 12.9 14.5 0.00 0.00 0.00 22 919.9
20260504193108 20 170 9.7 12.9 0.00 0.00 0.00 22 919.8
20260504191617 18 171 11.3 12.9 0.00 0.00 0.00 22 919.7
20260504190112 18 179 14.5 16.1 0.00 0.00 0.00 21 919.6
20260504184608 18 177 19.3 22.5 0.00 0.00 0.00 22 919.6
20260504183117 18 175 14.5 16.1 0.00 0.00 0.00 22 919.6
20260504181614 18 173 16.1 17.7 0.00 0.00 0.00 22 919.6
20260504180117 17 187 14.5 16.1 0.00 0.00 0.00 22 919.6
20260504174620 18 176 12.9 14.5 0.00 0.00 0.00 22 919.5
20260504173111 18 273 1.6 3.2 0.00 0.00 0.00 22 919.7
20260504171614 18 0 0.0 0.0 0.00 0.00 0.00 22 919.7
20260504170112 16 51 1.6 3.2 0.00 0.00 0.00 22 919.4
20260504160111 13 194 8.0 9.7 0.00 0.00 0.00 22 918.9
20260504150108 12 205 8.0 9.7 0.00 0.00 0.00 21 918.7
20260504140113 11 233 4.8 6.4 0.00 0.00 0.00 21 918.5